Weather History for Wolf Creek Pass, CO

Change the Weather History Date:

Wednesday, October 10, 2012

  Actual Average (KALS) Record (KALS)
Temperature  
Mean Temperature 40 °F 45 °F  
Max Temperature 48 °F 64 °F 77 °F (1991)
Min Temperature 32 °F 27 °F 15 °F (1982)
Degree Days  
Heating Degree Days 25 20  
Month to date heating degree days 178  
Since 1 July heating degree days 609  
Cooling Degree Days 0 0  
Month to date cooling degree days 0  
Year to date cooling degree days 51  
Moisture  
Dew Point 20 °F    
Average Humidity 48    
Maximum Humidity 60    
Minimum Humidity 34    
Precipitation  
Precipitation 0.00 in 0.02 in 0.76 in (1985)
Month to date precipitation 0.21  
Year to date precipitation 6.07  
Snow  
Snow 0.00 in 0.10 in 7.80 in (1973)
Month to date snowfall 0.3  
Since 1 July snowfall 0.3  
Since 1 September snowfall 0.3  
Snow Depth -    
Sea Level Pressure  
Sea Level Pressure 30.44 in    
Wind  
Wind Speed 16 mph (SW)    
Max Wind Speed 24 mph    
Max Gust Speed 34 mph    
Visibility 10 miles    
Events      
T = Trace of Precipitation, MM = Missing Value Source: NWS Daily Summary

Daily Weather History Graph

Daily Weather History Graph

Search for Another Location

Airport:

Trip Planner

Search our weather history database for the weather conditions in past years. The results will help you decide how hot, cold, wet, or windy it might be!

Date:

Astronomy

Oct. 10, 2012 Rise Set
Actual Time 7:11 AM MDT 6:36 PM MDT
Civil Twilight 6:44 AM MDT 7:02 PM MDT
Nautical Twilight 6:14 AM MDT 7:32 PM MDT
Astronomical Twilight 5:44 AM MDT 8:02 PM MDT
Moon 1:56 AM MDT (10/10) 3:35 PM MDT (10/10)
Length of Visible Light 12h 17m
Length of Day
11h 25m
Waning Crescent, 26% of the Moon is Illuminated
Oct 10
Waning Crescent
Oct 15
New
Oct 21
First Quarter
Oct 29
Full
Nov 6
Last Quarter

Hourly Weather History & Observations

Time (MDT) Temp. Windchill Dew Point Humidity Pressure Visibility Wind Dir Wind Speed Gust Speed Precip Events Conditions
12:04 AM 32.0 °F 21.6 °F 19.4 °F 60% 30.43 in 10.0 mi SW 15.0 mph 20.7 mph N/A   Clear
12:25 AM 32.0 °F 21.2 °F 19.4 °F 60% 30.42 in 10.0 mi SW 16.1 mph 20.7 mph N/A   Clear
12:45 AM 32.0 °F 21.2 °F 19.4 °F 60% 30.42 in 10.0 mi SW 16.1 mph 23.0 mph N/A   Clear
1:06 AM 32.0 °F 20.5 °F 19.4 °F 60% 30.42 in 10.0 mi SW 18.4 mph - N/A   Clear
1:26 AM 32.0 °F 19.8 °F 19.4 °F 60% 30.43 in 10.0 mi SW 20.7 mph - N/A   Clear
1:46 AM 32.0 °F 19.8 °F 19.4 °F 60% 30.43 in 10.0 mi SW 20.7 mph - N/A   Clear
2:08 AM 33.8 °F 22.2 °F 17.6 °F 52% 30.43 in 10.0 mi WSW 20.7 mph - N/A   Clear
2:27 AM 33.8 °F 23.2 °F 19.4 °F 56% 30.43 in 10.0 mi SW 17.3 mph - N/A   Clear
2:46 AM 32.0 °F 20.8 °F 17.6 °F 55% 30.43 in 10.0 mi SW 17.3 mph - N/A   Clear
3:06 AM 32.0 °F 20.8 °F 17.6 °F 55% 30.43 in 10.0 mi SW 17.3 mph - N/A   Clear
3:27 AM 32.0 °F 20.8 °F 17.6 °F 55% 30.43 in 10.0 mi SW 17.3 mph - N/A   Clear
3:46 AM 32.0 °F 20.8 °F 17.6 °F 55% 30.43 in 10.0 mi SW 17.3 mph - N/A   Clear
4:06 AM 32.0 °F 21.6 °F 17.6 °F 55% 30.43 in 10.0 mi SW 15.0 mph - N/A   Clear
4:25 AM 32.0 °F 21.6 °F 17.6 °F 55% 30.43 in 10.0 mi SW 15.0 mph 19.6 mph N/A   Clear
4:46 AM 32.0 °F 21.2 °F 17.6 °F 55% 30.43 in 10.0 mi SW 16.1 mph - N/A   Clear
5:05 AM 32.0 °F 21.2 °F 17.6 °F 55% 30.43 in 10.0 mi SW 16.1 mph - N/A   Clear
5:36 AM 32.0 °F 21.6 °F 17.6 °F 55% 30.44 in 10.0 mi SW 15.0 mph - N/A   Clear
5:56 AM 33.8 °F 24.8 °F 17.6 °F 52% 30.44 in 10.0 mi SW 12.7 mph 21.9 mph N/A   Clear
6:16 AM 33.8 °F 23.5 °F 17.6 °F 52% 30.44 in 10.0 mi WSW 16.1 mph 25.3 mph N/A   Clear
6:36 AM 33.8 °F 25.8 °F 17.6 °F 52% 30.45 in 10.0 mi SW 10.4 mph 19.6 mph N/A   Clear
6:56 AM 32.0 °F 22.5 °F 17.6 °F 55% 30.45 in 10.0 mi SW 12.7 mph - N/A   Clear
7:16 AM 32.0 °F 23.0 °F 17.6 °F 55% 30.45 in 10.0 mi SW 11.5 mph - N/A   Clear
7:36 AM 32.0 °F 22.1 °F 17.6 °F 55% 30.45 in 10.0 mi SW 13.8 mph - N/A   Clear
7:56 AM 33.8 °F 24.8 °F 19.4 °F 56% 30.46 in 10.0 mi SW 12.7 mph 20.7 mph N/A   Clear
8:16 AM 35.6 °F 27.1 °F 19.4 °F 52% 30.46 in 10.0 mi SW 12.7 mph 23.0 mph N/A   Clear
8:36 AM 35.6 °F 28.0 °F 19.4 °F 52% 30.47 in 10.0 mi SW 10.4 mph 17.3 mph N/A   Clear
8:56 AM 37.4 °F 32.1 °F 19.4 °F 48% 30.48 in 10.0 mi SSW 6.9 mph - N/A   Clear
9:16 AM 37.4 °F 29.3 °F 19.4 °F 48% 30.48 in 10.0 mi SSW 12.7 mph 19.6 mph N/A   Clear
9:36 AM 39.2 °F 33.0 °F 21.2 °F 49% 30.48 in 10.0 mi SSW 9.2 mph 18.4 mph N/A   Clear
9:56 AM 41.0 °F 34.3 °F 21.2 °F 45% 30.48 in 10.0 mi SSW 11.5 mph 21.9 mph N/A   Clear
10:16 AM 41.0 °F 33.9 °F 21.2 °F 45% 30.48 in 10.0 mi SSW 12.7 mph 23.0 mph N/A   Clear
10:56 AM 42.8 °F 36.2 °F 21.2 °F 42% 30.48 in 10.0 mi SW 12.7 mph 23.0 mph N/A   Clear
11:10 AM 42.8 °F 39.3 °F 21.2 °F 42% 30.48 in 10.0 mi SSW 5.8 mph 21.9 mph N/A   Clear
11:27 AM 44.6 °F 38.4 °F 23.0 °F 43% 30.48 in 10.0 mi SW 12.7 mph 21.9 mph N/A   Clear
11:46 AM 44.6 °F 38.1 °F 21.2 °F 39% 30.48 in 10.0 mi SW 13.8 mph 21.9 mph N/A   Clear
12:06 PM 44.6 °F 39.2 °F 23.0 °F 43% 30.48 in 10.0 mi South 10.4 mph 24.2 mph N/A   Clear
12:28 PM 44.6 °F 38.4 °F 21.2 °F 39% 30.47 in 10.0 mi SSW 12.7 mph 21.9 mph N/A   Clear
12:47 PM 44.6 °F 38.8 °F 21.2 °F 39% 30.47 in 10.0 mi SSW 11.5 mph 25.3 mph N/A   Clear
1:08 PM 46.4 °F 39.8 °F 21.2 °F 37% 30.46 in 10.0 mi SSW 16.1 mph 27.6 mph N/A   Clear
1:27 PM 46.4 °F 39.0 °F 21.2 °F 37% 30.44 in 10.0 mi SSW 19.6 mph 34.5 mph N/A   Clear
1:47 PM 46.4 °F 39.2 °F 23.0 °F 40% 30.44 in 10.0 mi SW 18.4 mph 33.4 mph N/A   Clear
2:08 PM 46.4 °F 38.7 °F 23.0 °F 40% 30.43 in 10.0 mi SW 20.7 mph 29.9 mph N/A   Clear
2:27 PM 46.4 °F - 21.2 °F 37% 30.42 in 10.0 mi North - - N/A   Clear
2:46 PM 48.2 °F - 21.2 °F 34% 30.42 in 10.0 mi SW 13.8 mph 31.1 mph N/A   Clear
3:06 PM 46.4 °F 41.9 °F 21.2 °F 37% 30.42 in 10.0 mi SW 9.2 mph 29.9 mph N/A   Clear
3:27 PM 46.4 °F 41.1 °F 21.2 °F 37% 30.42 in 10.0 mi SSW 11.5 mph 27.6 mph N/A   Clear
3:47 PM 46.4 °F 39.5 °F 21.2 °F 37% 30.42 in 10.0 mi SW 17.3 mph 32.2 mph N/A   Clear
4:05 PM 46.4 °F 39.0 °F 21.2 °F 37% 30.41 in 10.0 mi SSW 19.6 mph 33.4 mph N/A   Clear
4:25 PM 46.4 °F 39.0 °F 21.2 °F 37% 30.41 in 10.0 mi WSW 19.6 mph 34.5 mph N/A   Clear
4:46 PM 44.6 °F 38.8 °F 19.4 °F 37% 30.40 in 10.0 mi SW 11.5 mph 28.8 mph N/A   Clear
5:04 PM 44.6 °F - 19.4 °F 37% 30.41 in 10.0 mi North - - N/A   Clear
5:25 PM 44.6 °F 36.9 °F 21.2 °F 39% 30.41 in 10.0 mi SSW 18.4 mph 31.1 mph N/A   Clear
5:46 PM 42.8 °F 35.8 °F 21.2 °F 42% 30.41 in 10.0 mi SW 13.8 mph 31.1 mph N/A   Clear
6:04 PM 42.8 °F 34.5 °F 21.2 °F 42% 30.41 in 10.0 mi SW 18.4 mph 28.8 mph N/A   Clear
6:25 PM 41.0 °F 33.1 °F 21.2 °F 45% 30.41 in 10.0 mi SW 15.0 mph 26.5 mph N/A   Clear
6:43 PM 41.0 °F 31.6 °F 21.2 °F 45% 30.42 in 10.0 mi SW 20.7 mph 29.9 mph N/A   Clear
7:03 PM 39.2 °F 30.2 °F 21.2 °F 49% 30.43 in 10.0 mi SW 17.3 mph 28.8 mph N/A   Clear
7:24 PM 39.2 °F 29.3 °F 21.2 °F 49% 30.43 in 10.0 mi SW 20.7 mph 27.6 mph N/A   Clear
7:43 PM 39.2 °F 29.6 °F 21.2 °F 49% 30.43 in 10.0 mi SW 19.6 mph 26.5 mph N/A   Clear
8:02 PM 37.4 °F 26.1 °F 21.2 °F 52% 30.43 in 10.0 mi SW 24.2 mph 28.8 mph N/A   Clear
8:24 PM 37.4 °F 26.9 °F 19.4 °F 48% 30.43 in 10.0 mi WSW 20.7 mph 28.8 mph N/A   Clear
8:42 PM 37.4 °F 26.6 °F 21.2 °F 52% 30.43 in 10.0 mi SW 21.9 mph 29.9 mph N/A   Clear
9:16 PM 37.4 °F 27.5 °F 21.2 °F 52% 30.44 in 10.0 mi SW 18.4 mph 25.3 mph N/A   Clear
9:56 PM 37.4 °F 28.9 °F 21.2 °F 52% 30.44 in 10.0 mi SW 13.8 mph - N/A   Clear
10:16 PM 37.4 °F 27.8 °F 21.2 °F 52% 30.44 in 10.0 mi SW 17.3 mph - N/A   Clear
10:36 PM 35.6 °F 26.6 °F 21.2 °F 56% 30.44 in 10.0 mi SW 13.8 mph 18.4 mph N/A   Clear
10:56 PM 37.4 °F 28.9 °F 21.2 °F 52% 30.44 in 10.0 mi SW 13.8 mph - N/A   Clear
11:16 PM 37.4 °F 28.5 °F 21.2 °F 52% 30.44 in 10.0 mi SW 15.0 mph 21.9 mph N/A   Clear
11:36 PM 37.4 °F 28.5 °F 21.2 °F 52% 30.44 in 10.0 mi SW 15.0 mph 24.2 mph N/A   Clear
11:56 PM 35.6 °F 25.5 °F 21.2 °F 56% 30.43 in 10.0 mi SW 17.3 mph 24.2 mph N/A   Clear